Location: 5810 Zion Rd, Cleves, OH 45002, USA
(39.1922°N, 84.7113°W)
Time: 05:45:23
(UTC-05:00)

Courier 1B Rocket - Pass Details

Date: 09 December 2019
Orbit: 920 x 1202 km, 28.2° (Epoch: 21 January)

Event Time Altitude Azimuth Distance (km) Brightness Sun altitude
Rises 09:29:29 0° 252° (WSW) 3,687 7.8 14.9°
Reaches altitude 10° 09:32:30 10° 242° (WSW) 2,698 7.2 15.2°
Maximum altitude 09:38:02 30° 183° (S) 1,597 7.0 16.0°
Drops below altitude 10° 09:43:24 10° 124° (ESE) 2,608 9.1 16.6°
Sets 09:46:16 0° 113° (ESE) 3,544 9.1 17.0°
